• In Uzbekistan
  • List of Countries
  • For 7 days
  • Water Temperature
  • Satellite Maps
  • Weather Map
  • Weather Widgets
  • user-avatar
    Login

    Hourly Weather Ondjiwa

    Today, 22 November, Wednesday

    Time Temperature Precipitation Wind Pressure Humidity
    00:00 +27°C° 0 mm 2 mps 666 mmHg 30%
    01:00 +26°C° 0 mm 2 mps 666 mmHg 31%
    02:00 +26°C° 0 mm 2 mps 666 mmHg 30%
    03:00 +25°C° 0 mm 2 mps 666 mmHg 30%
    04:00 +25°C° 0 mm 2 mps 666 mmHg 29%
    05:00 +26°C° 0 mm 3 mps 667 mmHg 28%
    06:00 +27°C° 0 mm 3 mps 668 mmHg 27%
    07:00 +28°C° 0 mm 3 mps 668 mmHg 25%
    08:00 +30°C° 0 mm 3 mps 668 mmHg 23%
    09:00 +33°C° 0 mm 3 mps 668 mmHg 20%
    10:00 +35°C° 0 mm 4 mps 668 mmHg 17%
    11:00 +36°C° 0 mm 4 mps 668 mmHg 16%
    12:00 +37°C° 0 mm 3 mps 667 mmHg 15%
    13:00 +38°C° 0 mm 3 mps 667 mmHg 13%
    14:00 +38°C° 0 mm 3 mps 666 mmHg 13%
    15:00 +38°C° 0 mm 3 mps 666 mmHg 13%
    16:00 +38°C° 0 mm 3 mps 665 mmHg 13%
    17:00 +36°C° 0 mm 2 mps 665 mmHg 15%
    18:00 +35°C° 0 mm 2 mps 665 mmHg 16%
    19:00 +34°C° 0 mm 2 mps 665 mmHg 17%
    20:00 +32°C° 0 mm 2 mps 666 mmHg 19%
    21:00 +31°C° 0 mm 2 mps 666 mmHg 20%
    22:00 +30°C° 0 mm 2 mps 666 mmHg 22%
    23:00 +30°C° 0 mm 2 mps 666 mmHg 24%

    Tomorrow, 23 November, Thursday

    Time Temperature Precipitation Wind Pressure Humidity
    00:00 +29°C° 0 mm 2 mps 666 mmHg 26%
    01:00 +28°C° 0 mm 2 mps 666 mmHg 28%
    02:00 +27°C° 0 mm 2 mps 666 mmHg 28%
    03:00 +27°C° 0 mm 2 mps 666 mmHg 27%
    04:00 +27°C° 0 mm 3 mps 666 mmHg 27%
    05:00 +27°C° 0 mm 2 mps 666 mmHg 27%
    06:00 +28°C° 0 mm 2 mps 667 mmHg 27%
    07:00 +28°C° 0 mm 2 mps 667 mmHg 26%
    08:00 +30°C° 0 mm 2 mps 667 mmHg 24%
    09:00 +32°C° 0 mm 2 mps 668 mmHg 22%
    10:00 +35°C° 0 mm 2 mps 668 mmHg 20%
    11:00 +36°C° 0 mm 1 mps 668 mmHg 19%
    12:00 +37°C° 0 mm 1 mps 667 mmHg 18%
    13:00 +40°C° 0 mm 1 mps 667 mmHg 17%
    14:00 +39°C° 0 mm 1 mps 666 mmHg 18%
    15:00 +37°C° 0 mm 1 mps 665 mmHg 19%
    16:00 +36°C° 0 mm 1 mps 665 mmHg 20%
    17:00 +36°C° 0 mm 2 mps 665 mmHg 22%
    18:00 +34°C° 0 mm 2 mps 665 mmHg 24%
    19:00 +32°C° 0 mm 2 mps 665 mmHg 26%
    20:00 +31°C° 0 mm 3 mps 666 mmHg 29%
    21:00 +32°C° 0 mm 4 mps 666 mmHg 32%
    22:00 +30°C° 0 mm 5 mps 667 mmHg 35%
    23:00 +29°C° 0 mm 5 mps 667 mmHg 38%

    Day after tomorrow, 24 November, Friday

    Time Temperature Precipitation Wind Pressure Humidity
    00:00 +28°C° 0 mm 4 mps 667 mmHg 41%
    01:00 +27°C° 0 mm 4 mps 667 mmHg 43%
    02:00 +26°C° 0 mm 4 mps 666 mmHg 46%
    03:00 +26°C° 0 mm 4 mps 666 mmHg 48%
    04:00 +26°C° 0 mm 4 mps 666 mmHg 50%
    05:00 +26°C° 0 mm 4 mps 666 mmHg 49%
    06:00 +26°C° 0 mm 4 mps 667 mmHg 49%
    07:00 +26°C° 0 mm 4 mps 667 mmHg 48%
    08:00 +28°C° 0 mm 3 mps 668 mmHg 41%
    09:00 +30°C° 0 mm 3 mps 668 mmHg 35%
    10:00 +33°C° 0 mm 3 mps 669 mmHg 28%
    11:00 +34°C° 0 mm 3 mps 668 mmHg 27%
    12:00 +35°C° 0 mm 2 mps 667 mmHg 26%
    13:00 +36°C° 0 mm 2 mps 667 mmHg 25%
    14:00 +36°C° 0 mm 2 mps 666 mmHg 24%
    15:00 +36°C° 0 mm 2 mps 666 mmHg 24%
    16:00 +36°C° 0 mm 2 mps 665 mmHg 24%
    17:00 +35°C° 0 mm 2 mps 665 mmHg 27%
    18:00 +34°C° 0 mm 2 mps 665 mmHg 30%
    19:00 +31°C° 0 mm 3 mps 666 mmHg 33%
    20:00 +30°C° 0.1 mm 3 mps 666 mmHg 37%
    21:00 +29°C° 0.1 mm 3 mps 666 mmHg 40%
    22:00 +28°C° 0.1 mm 3 mps 667 mmHg 44%
    23:00 +27°C° 0.3 mm 3 mps 667 mmHg 48%

    25 November, Saturday

    Time Temperature Precipitation Wind Pressure Humidity
    00:00 +26°C° 0.3 mm 3 mps 666 mmHg 51%
    01:00 +26°C° 0.3 mm 3 mps 666 mmHg 54%
    02:00 +25°C° 0.1 mm 3 mps 666 mmHg 55%
    03:00 +25°C° 0.1 mm 2 mps 666 mmHg 56%
    04:00 +24°C° 0.1 mm 2 mps 666 mmHg 57%
    05:00 +25°C° 0 mm 2 mps 666 mmHg 53%
    06:00 +26°C° 0 mm 2 mps 667 mmHg 49%
    07:00 +26°C° 0 mm 2 mps 667 mmHg 45%
    08:00 +29°C° 0 mm 1 mps 668 mmHg 39%
    09:00 +32°C° 0 mm 1 mps 668 mmHg 33%
    10:00 +34°C° 0 mm 1 mps 669 mmHg 28%
    11:00 +36°C° 0 mm 1 mps 668 mmHg 25%
    12:00 +37°C° 0 mm 1 mps 667 mmHg 23%
    13:00 +39°C° 0 mm 1 mps 667 mmHg 21%
    14:00 +38°C° 0 mm 2 mps 666 mmHg 22%
    15:00 +37°C° 0 mm 2 mps 665 mmHg 23%
    16:00 +36°C° 0 mm 2 mps 665 mmHg 24%
    17:00 +35°C° 0.1 mm 2 mps 665 mmHg 27%
    18:00 +34°C° 0.1 mm 2 mps 665 mmHg 29%
    19:00 +32°C° 0.1 mm 2 mps 665 mmHg 32%
    20:00 +31°C° 0.2 mm 2 mps 666 mmHg 35%
    21:00 +30°C° 0.2 mm 2 mps 666 mmHg 39%
    22:00 +29°C° 0.2 mm 3 mps 666 mmHg 43%
    23:00 +28°C° 0 mm 3 mps 666 mmHg 43%

    26 November, Sunday

    Time Temperature Precipitation Wind Pressure Humidity
    00:00 +28°C° 0 mm 3 mps 666 mmHg 43%
    01:00 +27°C° 0 mm 3 mps 666 mmHg 44%
    02:00 +27°C° 0 mm 3 mps 666 mmHg 43%
    03:00 +26°C° 0 mm 3 mps 666 mmHg 43%
    04:00 +26°C° 0 mm 2 mps 666 mmHg 43%
    05:00 +27°C° 0 mm 2 mps 666 mmHg 39%
    06:00 +27°C° 0 mm 2 mps 667 mmHg 36%
    07:00 +28°C° 0 mm 2 mps 668 mmHg 32%
    08:00 +31°C° 0 mm 3 mps 668 mmHg 27%
    09:00 +34°C° 0 mm 3 mps 668 mmHg 22%
    10:00 +37°C° 0 mm 3 mps 668 mmHg 17%
    11:00 +37°C° 0 mm 3 mps 667 mmHg 15%
    12:00 +38°C° 0 mm 3 mps 667 mmHg 14%
    13:00 +39°C° 0 mm 3 mps 666 mmHg 12%
    14:00 +39°C° 0 mm 2 mps 666 mmHg 12%
    15:00 +39°C° 0 mm 2 mps 665 mmHg 12%
    16:00 +40°C° 0 mm 2 mps 665 mmHg 12%
    17:00 +38°C° 0 mm 2 mps 665 mmHg 15%
    18:00 +36°C° 0 mm 2 mps 665 mmHg 17%
    19:00 +34°C° 0 mm 2 mps 665 mmHg 20%
    20:00 +32°C° 0 mm 2 mps 666 mmHg 24%
    21:00 +31°C° 0 mm 3 mps 666 mmHg 29%
    22:00 +30°C° 0 mm 3 mps 666 mmHg 34%
    23:00 +29°C° 0 mm 4 mps 666 mmHg 35%

    27 November, Monday

    Time Temperature Precipitation Wind Pressure Humidity
    00:00 +28°C° 0 mm 4 mps 666 mmHg 37%
    01:00 +27°C° 0 mm 4 mps 666 mmHg 38%
    02:00 +26°C° 0 mm 4 mps 666 mmHg 41%
    03:00 +25°C° 0 mm 4 mps 666 mmHg 44%
    04:00 +23°C° 0 mm 4 mps 666 mmHg 46%
    05:00 +23°C° 0 mm 4 mps 666 mmHg 46%
    06:00 +23°C° 0 mm 4 mps 667 mmHg 46%
    07:00 +23°C° 0 mm 4 mps 667 mmHg 46%
    08:00 +27°C° 0 mm 3 mps 667 mmHg 38%
    09:00 +29°C° 0 mm 3 mps 668 mmHg 31%
    10:00 +31°C° 0 mm 3 mps 668 mmHg 24%
    11:00 +34°C° 0 mm 2 mps 668 mmHg 22%
    12:00 +36°C° 0 mm 2 mps 667 mmHg 19%
    13:00 +38°C° 0 mm 2 mps 667 mmHg 17%
    14:00 +37°C° 0 mm 1 mps 666 mmHg 17%
    15:00 +37°C° 0 mm 1 mps 666 mmHg 17%
    16:00 +37°C° 0 mm 1 mps 665 mmHg 17%
    17:00 +36°C° 0 mm 1 mps 665 mmHg 18%
    18:00 +35°C° 0 mm 1 mps 666 mmHg 20%
    19:00 +33°C° 0 mm 1 mps 666 mmHg 21%
    20:00 +33°C° 0 mm 1 mps 666 mmHg 22%
    21:00 +32°C° 0 mm 2 mps 667 mmHg 24%
    22:00 +32°C° 0 mm 2 mps 667 mmHg 25%
    23:00 +30°C° 0 mm 3 mps 667 mmHg 27%
    Show more